Location: Newark
(47.3150°N, 5.1150°E)
Time: 17:40:43
(UTC+00:00)

N. Korean satellite - Visible Passes

Search period start: 23 October 2019 00:00
Search period end: 02 November 2019 00:00
Orbit: 455 x 508 km, 97.2° (Epoch: 22 October)

Date Brightness Start Highest point End Pass type
(mag) Time Alt. Az. Time Alt. Az. Time Alt. Az.
23 Oct 8.8 05:06:12 10° NNE 05:09:29 31° E 05:12:48 10° SSE visible
23 Oct 8.8 17:18:07 10° SSW 17:21:11 30° W 17:24:18 10° NNW visible
24 Oct 9.9 04:41:33 10° NE 04:44:01 17° E 04:46:29 10° SE visible
26 Oct 7.6 05:23:25 10° NNE 05:27:00 51° E 05:30:36 10° S visible
26 Oct 9.7 17:36:11 10° SW 17:38:43 19° W 17:41:18 10° NW visible
27 Oct 9.1 04:58:27 10° NE 05:01:35 26° E 05:04:44 10° SSE visible
27 Oct 8.3 17:10:01 10° SSW 17:13:15 37° W 17:16:33 10° NNW visible
28 Oct 10.2 04:34:02 10° ENE 04:36:05 14° E 04:38:08 10° SE visible
29 Oct 6.7 05:40:46 10° NNE 05:44:27 86° ESE 05:48:10 10° SSW visible
29 Oct 10.2 17:54:48 10° WSW 17:56:17 12° W 17:57:48 10° WNW visible
30 Oct 8.1 05:15:34 10° NNE 05:19:06 42° E 05:22:38 10° S visible
30 Oct 9.3 17:27:54 10° SSW 17:30:44 23° W 17:33:38 10° NW visible
31 Oct 9.5 04:50:42 10° NE 04:53:39 22° E 04:56:35 10° SE visible
31 Oct 7.8 17:01:55 10° S 17:05:17 47° W 17:08:44 10° NNW visible
01 Nov 10.3 04:26:40 10° ENE 04:28:06 12° E 04:29:32 10° ESE visible
